#timestamp,LO_Frequency,Hit,StdDev 
1593248415.0,286046998.8,N
1593248415.9,286046998.8,N
1593248435.8,286046999.5,N
1593248455.6,286046999.6,N
1593248475.5,286046997.4,N
1593248495.3,286046999.6,N
1593248515.1,286046999.3,N
1593248535.9,286046999.6,N
1593248555.7,286046998.7,N
1593248575.6,286046998.6,N
1593248595.4,286047001.1,N
1593248615.2,286047001.0,N
1593248635.1,286047000.7,N
1593248636.0,286047000.7,N
1593248655.8,286047001.2,N
1593248675.6,286046999.3,N
1593248695.5,286046999.1,N
1593248715.3,286046998.3,N
1593248735.2,286047001.2,N
1593248755.9,286046998.1,N
1593248775.7,286046998.2,N
1593248795.6,286047000.8,N
1593248815.4,286047000.7,N
1593248835.3,286046998.4,N
1593248855.1,286047001.2,N
1593248856.0,286047001.2,N
1593248875.8,286046999.0,N
1593248895.7,286046999.3,N
1593248915.5,286046999.6,N
1593248935.3,286046999.4,N
1593248955.2,286046998.6,N
1593248975.0,286046998.8,N
1593248975.9,286046998.8,N
1593248995.8,286046998.4,N
1593249015.6,286047000.4,N
1593249035.4,286046998.7,N
1593249055.3,286046998.1,N
1593249075.1,286046996.5,Y
1593249095.9,286046999.4,P
1593249115.7,286046996.8,P
1593249135.5,286046996.6,N
1593249155.4,286046997.1,N
1593249175.2,286046997.4,N
1593249195.1,286046995.3,Y
1593249196.0,286046995.3,P
1593249215.8,286047000.7,N
1593249235.6,286046999.4,N
1593249255.5,286046996.6,N
1593249275.3,286046997.3,N
1593249295.1,286046999.5,N
1593249315.9,286046996.7,N
1593249335.7,286046999.1,N
1593249355.6,286046999.3,N
1593249375.4,286047000.0,N
1593249395.2,286046998.2,N
1593249415.1,286046996.6,N
1593249416.0,286046996.6,N
1593249435.8,286046997.4,N
1593249485.7,286047000.6,E
1593249495.6,286047003.2,N
1593249515.4,286047002.9,P
1593249535.3,286047003.4,P
1593249555.1,286047001.3,Y
1593249575.9,286047001.1,P
1593249595.7,286046998.1,N
1593249615.5,286047000.0,N
1593249635.4,286046998.5,N
1593249655.2,286047000.6,N
1593249675.0,286047000.6,N
1593249676.0,286047000.6,N
1593249695.8,286047000.4,N
1593249715.6,286047002.4,N
1593249735.5,286047000.0,N
1593249755.3,286047000.5,N
1593249775.2,286046999.0,N
1593249795.9,286046999.3,N
1593249815.7,286046999.1,N
1593249835.6,286046998.4,N
1593249855.4,286046998.9,N
1593249875.2,286047000.4,N
1593249895.1,286046998.7,N
1593249896.0,286046998.7,N
1593249915.8,286046998.5,N
1593249935.7,286046999.5,N
1593249955.5,286046999.0,N
1593249975.3,286046997.0,N
1593249995.2,286046996.5,N
1593250015.0,286046997.7,N
1593250015.9,286046997.7,N
1593250035.8,286046997.7,N
1593250055.6,286046997.6,N
1593250075.4,286046998.0,N
1593250095.3,286046995.1,Y
1593250115.1,286046997.7,P
1593250135.8,286046997.7,N
1593250155.7,286046994.3,P
1593250175.5,286046994.1,Y
1593250195.4,286046996.8,P
1593250215.2,286046997.7,P
1593250235.0,286046998.9,P
1593250235.9,286046998.9,N
1593250255.8,286046998.9,N
1593250275.6,286046995.3,Y
1593250295.5,286047002.2,P
1593250315.3,286047003.9,N
1593250335.1,286047003.2,N
1593250355.9,286047003.5,N
1593250375.7,286047001.6,N
1593250395.5,286047004.4,N
1593250415.4,286047003.0,N
1593250435.2,286047004.8,N
1593250455.1,286047005.8,Y
1593250456.0,286047005.8,P
1593250475.8,286047001.4,N
1593250495.7,286047004.4,N
1593250515.5,286047002.9,N
1593250535.3,286047003.9,N
1593250555.2,286047004.2,N
1593250575.0,286047003.4,N
1593250575.9,286047003.4,N
1593250595.8,286047004.2,Y
1593250615.6,286046997.0,P
1593250635.4,286046995.0,N
1593250655.3,286046997.7,N
1593250675.1,286046996.7,N
1593250695.9,286046998.9,N
1593250715.7,286047000.1,N
1593250735.5,286046999.4,N
1593250755.4,286047000.0,N
1593250775.2,286047000.9,N
1593250795.0,286047000.8,N
1593250796.0,286047000.8,N
1593250815.8,286046999.6,N
1593250835.6,286046996.7,N
1593250855.5,286046999.3,N
1593250875.3,286046997.7,N
1593250895.1,286046996.2,N
1593250915.9,286046993.6,Y
1593250935.7,286046994.5,P
1593250955.6,286046994.1,N
1593250975.4,286046993.5,P
1593250995.2,286046994.5,N
1593251015.1,286046992.4,Y
1593251016.0,286046992.4,P
1593251035.8,286046995.3,P
1593251055.7,286046995.8,P
1593251075.5,286046995.3,Y
1593251095.3,286047000.4,P
1593251115.2,286047000.4,N
1593251135.0,286046998.4,N
1593251135.9,286046998.4,N
1593251155.8,286046999.0,N
1593251175.6,286047000.4,N
1593251195.4,286047000.4,N
1593251215.3,286046998.4,N
1593251235.1,286046999.0,N
1593251255.9,286046999.1,N
1593251275.7,286046999.5,N
1593251295.5,286046998.4,N
1593251315.4,286046999.0,N
1593251335.2,286046998.7,N
1593251355.1,286047000.8,N
1593251356.0,286047000.8,N
1593251375.8,286047000.5,N
1593251395.6,286046999.9,N
1593251415.5,286047002.0,N
1593251435.3,286047002.6,N
1593251455.2,286047002.2,N
1593251475.0,286047002.4,N
1593251475.9,286047002.4,N
1593251495.8,286047000.2,N
1593251515.6,286047000.8,N
1593251535.4,286047000.2,N
1593251555.3,286046999.7,N
1593251575.1,286047000.1,N
1593251595.9,286046998.1,N
1593251615.7,286047002.2,N
1593251635.5,286047002.6,N
1593251655.4,286047000.2,N
1593251675.2,286047000.4,N
1593251695.0,286047000.7,N
1593251695.9,286047000.7,N
1593251715.8,286047000.4,N
1593251735.6,286046999.9,N
1593251755.5,286047001.7,N
1593251775.3,286047000.1,N
1593251795.2,286047002.4,N
1593251815.9,286047004.1,Y
1593251835.7,286047004.0,P
1593251855.6,286047002.5,N
1593251875.4,286047002.6,N
1593251895.2,286047002.4,N
1593251915.1,286047000.9,N
1593251916.0,286047000.9,N
1593251935.8,286046999.7,N
1593251955.7,286047002.1,N
1593251975.5,286047001.5,N
1593251995.3,286046999.7,N
